COSMOS 970 DEB, 12860

Orbit data source: Space-Track

COSMOS 970 DEB, 12860 is space debris in LEO originally from a launch on Wed, 21 Dec 1977 UTC launched from the Tyuratam Missile And Space Complex (TTMTR). Debris objects in space refer to the collection of defunct objects orbiting the Earth. Examples of debris include non-operational satellites, rocket bodies, and fragments generated from explosions, collisions, or faulty payload assembly.

Loading next visibility...
Identifier
12860, 1977-121AN
Orbit
LEO
Country
Flag of CISCIS
Related business
Manufacturer
Unknown
Mission
Spacecraft
Bus & Motor
Unknown
Mass
Unknown
Launch date (UTC)
1977-12-21 (48 years ago)
Launch vehicle
Unknown
Launch site
Tyuratam Missile And Space Complex (TTMTR)
Object type
Payload
Rocket body
Debris
Shape & HBR
Unknown shape, 0.1 m
Radar Cross Section
Medium (>0.1 m² and <1 m²)

Expand to show TLE details & history
Last TLE update: 23 hours ago

TLE from 23 hours ago
0 COSMOS 970 DEB
1 12860U 77121AN  26170.96418862  .00000004  00000-0  98190-4 0  9990
2 12860  65.8055   1.6848 0133457 323.8011 195.1851 13.63493406311796
Epoch: 2026-06-19T23:08Z
TLE epoch observation values (Epoch: 2026-06-19T23:08:25.896Z)
Latitude
19.46289°
Longitude
-82.6978°
Altitude
1,119.971 km
Speed
7.247 km/s
True Right ascension
11h 30m 22s
True Declination
19° 21' 37"
Sunlit
Object was in daylight at epoch
Visualization orbit readout
Latitude
Unknown
Longitude
Unknown
Altitude
Unknown
Speed
Unknown
Apparent Right ascension
Unknown
Apparent Declination
Unknown
Sunlit
N/A
Visualization observer readout
Local Sidereal Time
08:42:09
Azimuth
Unknown
Elevation
Unknown
Doppler factor
Unknown
Orbital elements
Apogee altitude
1,120.306 km
Perigee altitude
922.798 km
Semi-major axis
7,399.689 km
Eccentricity
0.01335
Inclination
65.8055°
RAAN
1.6848°
Arg. of periapsis
323.8011°
True anomaly
194.79087°
Mean anomaly
195.1851°
Eccentric anomaly
194.98736°
Mean motion
3.40975 °/min
Orbital period
105.58 mins
BSTAR
0.00009819
Loading maneuver chart data...
Computing Atmospheric mass density...
Loading historical data...
Loading historical data...
Loading historical data...
Loading historical data...
Loading historical data...
Loading historical data...
Loading historical data...

Documentation

Showing up to 5 results
|